Regional Weather Roundup
Issued by NWS

Home | Current Version | Previous Version | Text Only | Print | Product List | Glossary On
Versions: 1 2 3 4 5 6 7 8 9 10 11 12 13 14 15 16 17 18 19 20 21 22 23 24 25 26 27 28 29 30 31 32 33 34 35 36 37 38 39 40 41 42 43 44 45 46 47 48 49 50
293
ASUS45 KCYS 271910
RWRWY

WYOMING REGIONAL WEATHER ROUNDUP
NATIONAL WEATHER SERVICE CHEYENNE WY
100 PM MDT WED JUL 27 2016

NOTE:  "FAIR" INDICATES FEW OR NO CLOUDS BELOW 12,000 FEET
WITH NO SIGNIFICANT WEATHER AND/OR OBSTRUCTIONS TO VISIBILITY.

WYZ001-272000-
YELLOWSTONE NATIONAL PARK

CITY           SKY/WX    TMP DP  RH WIND       PRES   REMARKS
LK YELLOWSTONE   N/A     70  44  39 MISG      30.41F
W YELLOWSTONE  NOT AVBL

$$
WYZ002>013-054>058-071-098>099-272000-
NORTHERN WYOMING

CITY           SKY/WX    TMP DP  RH WIND       PRES   REMARKS
JACKSON        SUNNY     81  39  22 S6        30.29F
CODY           FAIR      81  48  32 N10       30.20F
GREYBULL       FAIR      85  44  23 VRB5      30.11F
WORLAND        FAIR      85  45  24 VRB5      30.12F
SHERIDAN       FAIR      86  52  30 N8        30.14F
BUFFALO        FAIR      82  52  35 VRB6      30.20F
GILLETTE       FAIR      82  54  37 NE14      30.16S
HULETT         FAIR      75  55  50 NE7G16    30.21S
NEWCASTLE      FAIR      79  48  34 CALM      30.17F

$$
WYZ014>020-022>026-101>103-272000-
CENTRAL WYOMING

CITY           SKY/WX    TMP DP  RH WIND       PRES   REMARKS
BIG PINEY      FAIR      82  31  15 VRB7      30.32F
PINEDALE       FAIR      81  27  13 NW9       30.34S
DUBOIS         MOCLDY    79  28  15 NW8       30.30F HAZE
LANDER         FAIR      84  47  27 E6        30.21F
RIVERTON       FAIR      83  47  28 E9        30.21F
CASPER         FAIR      85  45  24 CALM      30.18F
DOUGLAS          N/A    N/A N/A N/A MISG      30.16F

$$
WYZ021-027>030-104>119-272000-
SOUTHERN WYOMING

CITY           SKY/WX    TMP DP  RH WIND       PRES   REMARKS
EVANSTON       FAIR      85  22  10 W16G25    30.35S
KEMMERER         N/A    N/A N/A N/A W12G20    30.35F
FORT BRIDGER   FAIR      89  21   8 W16G25    30.36S
ROCK SPRINGS   FAIR      85  18   8 NW12G21   30.30F
DIXON          FAIR      88  31  13 W9G17     30.30F
RAWLINS        FAIR      85  27  12 W16G26    30.29F
SARATOGA       FAIR      84  32  15 W12G23    30.31F
LARAMIE        FAIR      84  32  15 NW12G25   30.29F
CHEYENNE       FAIR      79  50  36 CALM      30.25F
TORRINGTON     FAIR      84  51  31 SE9       30.13F
PINE BLUFFS    FAIR      81  55  41 E5        30.20F

$$




USA.gov is the U.S. government's official web portal to all federal, state and local government web resources and services.